KLM467 CYQX-EINN

Flight info

Callsign KLM467
Flight time N/A
Altitude 35000
Route YQX DCT ELSIR DCT 50N050W 51N040W 52N030W 52N020W DCT LIMRI/N0463F350 DCT XETBO DCT LUPOR LUPOR2E
Aircraft B739/M-SDE2E3FGHIRWXY/LB1

Departure

Time 2026-04-30 11:03
Airport Gander International Airport (CYQX)

Arrival

Time N/A
Airport Shannon Airport (EINN)
Time Latitude Longitude Altitude Speed Heading
2026-04-30 10:53 48.94677 -54.57214 453 ft 0 kts 195°
2026-04-30 10:57 48.94688 -54.57209 451 ft 4 kts 191°
2026-04-30 10:57 48.94714 -54.57205 452 ft 4 kts 173°
2026-04-30 10:57 48.94738 -54.57216 452 ft 4 kts 138°
2026-04-30 10:58 48.94749 -54.57236 451 ft 0 kts 108°
2026-04-30 10:59 48.94746 -54.57224 453 ft 6 kts 108°
2026-04-30 11:00 48.94722 -54.57105 452 ft 16 kts 98°
2026-04-30 11:00 48.94778 -54.56979 452 ft 16 kts 19°
2026-04-30 11:00 48.94880 -54.56928 453 ft 15 kts 18°
2026-04-30 11:00 48.94949 -54.56836 450 ft 15 kts 96°
2026-04-30 11:01 48.94918 -54.56686 448 ft 15 kts 108°
2026-04-30 11:01 48.94886 -54.56542 446 ft 14 kts 109°
2026-04-30 11:01 48.94858 -54.56402 440 ft 14 kts 107°
2026-04-30 11:01 48.94828 -54.56256 434 ft 15 kts 108°
2026-04-30 11:02 48.94796 -54.56113 435 ft 15 kts 112°
2026-04-30 11:02 48.94696 -54.56028 434 ft 24 kts 183°
2026-04-30 11:02 48.94350 -54.56129 449 ft 85 kts 191°
2026-04-30 11:02 48.93540 -54.56363 453 ft 146 kts 191°
2026-04-30 11:03 48.92404 -54.56709 619 ft 181 kts 192°
2026-04-30 11:03 48.91210 -54.57141 1401 ft 184 kts 192°
2026-04-30 11:03 48.89848 -54.57315 1762 ft 207 kts 165°
2026-04-30 11:04 48.88218 -54.53784 2774 ft 242 kts 90°
2026-04-30 11:04 48.88806 -54.51304 3271 ft 259 kts 61°
2026-04-30 11:04 48.89763 -54.49028 4091 ft 257 kts 61°
2026-04-30 11:04 48.90266 -54.47782 4496 ft 259 kts 62°
2026-04-30 11:05 48.90884 -54.46164 4958 ft 262 kts 63°
2026-04-30 11:05 48.91749 -54.43712 5634 ft 265 kts 65°
2026-04-30 11:05 48.92571 -54.41190 6333 ft 268 kts 66°
2026-04-30 11:05 48.93358 -54.38600 6986 ft 271 kts 68°
2026-04-30 11:06 48.94121 -54.35955 7666 ft 274 kts 69°
2026-04-30 11:06 48.94866 -54.33265 8316 ft 277 kts 69°
2026-04-30 11:06 48.95597 -54.30538 8978 ft 280 kts 70°
2026-04-30 11:06 48.96324 -54.27763 9621 ft 283 kts 70°
2026-04-30 11:07 48.97047 -54.24953 10242 ft 288 kts 70°
2026-04-30 11:07 48.97793 -54.22012 10455 ft 307 kts 71°
2026-04-30 11:07 48.98580 -54.18879 10612 ft 326 kts 71°
2026-04-30 11:07 48.99409 -54.15555 10757 ft 344 kts 71°
2026-04-30 11:08 49.00278 -54.12050 10893 ft 362 kts 70°
2026-04-30 11:08 49.01171 -54.08436 11010 ft 378 kts 71°
2026-04-30 11:08 49.02124 -54.04567 11261 ft 389 kts 70°
2026-04-30 11:08 49.03064 -54.00737 11723 ft 393 kts 71°
2026-04-30 11:09 49.04024 -53.96822 12250 ft 395 kts 70°
2026-04-30 11:09 49.04988 -53.92880 12730 ft 399 kts 71°
2026-04-30 11:09 49.05960 -53.88891 13213 ft 402 kts 71°
2026-04-30 11:09 49.06936 -53.84879 13679 ft 405 kts 71°
2026-04-30 11:10 49.07919 -53.80830 14159 ft 408 kts 71°
2026-04-30 11:10 49.08903 -53.76766 14591 ft 410 kts 70°
2026-04-30 11:10 49.09894 -53.72676 15011 ft 413 kts 71°
2026-04-30 11:10 49.10892 -53.68543 15422 ft 416 kts 71°
2026-04-30 11:11 49.11886 -53.64413 15826 ft 418 kts 71°
2026-04-30 11:11 49.12897 -53.60208 16240 ft 420 kts 71°
2026-04-30 11:11 49.13905 -53.56007 16667 ft 422 kts 72°
2026-04-30 11:11 49.14917 -53.51786 17049 ft 425 kts 70°
2026-04-30 11:12 49.15936 -53.47524 17408 ft 428 kts 71°
2026-04-30 11:12 49.16956 -53.43250 17771 ft 430 kts 71°
2026-04-30 11:12 49.17982 -53.38946 18123 ft 433 kts 71°
2026-04-30 11:12 49.19013 -53.34609 18510 ft 434 kts 71°
2026-04-30 11:13 49.20045 -53.30257 18808 ft 437 kts 71°
2026-04-30 11:13 49.21084 -53.25869 19075 ft 439 kts 72°
2026-04-30 11:13 49.22125 -53.21464 19362 ft 441 kts 71°
2026-04-30 11:13 49.23172 -53.17029 19649 ft 444 kts 70°
2026-04-30 11:14 49.24219 -53.12582 19923 ft 446 kts 72°
2026-04-30 11:14 49.25255 -53.08165 20209 ft 448 kts 72°
2026-04-30 11:14 49.26307 -53.03671 20490 ft 450 kts 71°
2026-04-30 11:14 49.27363 -52.99153 20772 ft 451 kts 72°
2026-04-30 11:15 49.28423 -52.94617 21069 ft 453 kts 71°
2026-04-30 11:15 49.29486 -52.90056 21323 ft 455 kts 71°
2026-04-30 11:15 49.30550 -52.85476 21558 ft 458 kts 72°
2026-04-30 11:15 49.31616 -52.80880 21820 ft 459 kts 72°
2026-04-30 11:16 49.32688 -52.76250 22084 ft 461 kts 72°
2026-04-30 11:16 49.33759 -52.71610 22342 ft 462 kts 71°
2026-04-30 11:16 49.34834 -52.66945 22580 ft 464 kts 72°
2026-04-30 11:16 49.35909 -52.62268 22826 ft 466 kts 71°
2026-04-30 11:17 49.36988 -52.57567 23053 ft 468 kts 71°
2026-04-30 11:17 49.38065 -52.52858 23285 ft 469 kts 71°
2026-04-30 11:17 49.39148 -52.48119 23513 ft 471 kts 71°
2026-04-30 11:17 49.40234 -52.43352 23703 ft 473 kts 72°
2026-04-30 11:18 49.41321 -52.38575 23920 ft 475 kts 71°
2026-04-30 11:18 49.43503 -52.28951 24335 ft 478 kts 72°
2026-04-30 11:18 49.44571 -52.24216 24528 ft 479 kts 72°
2026-04-30 11:19 49.45683 -52.19277 24735 ft 480 kts 72°
2026-04-30 11:19 49.46775 -52.14418 24925 ft 481 kts 72°
2026-04-30 11:19 49.47854 -52.09604 25114 ft 483 kts 72°
2026-04-30 11:19 49.48947 -52.04724 25305 ft 484 kts 72°
2026-04-30 11:20 49.50041 -51.99824 25511 ft 485 kts 72°
2026-04-30 11:20 49.51193 -51.94946 25779 ft 484 kts 70°
2026-04-30 11:20 49.52434 -51.90131 26095 ft 483 kts 69°
2026-04-30 11:20 49.53708 -51.85358 26420 ft 481 kts 68°
2026-04-30 11:21 49.54554 -51.82204 26650 ft 480 kts 69°
2026-04-30 11:21 49.55821 -51.77459 26974 ft 479 kts 69°
2026-04-30 11:21 49.57076 -51.72702 27246 ft 479 kts 69°
2026-04-30 11:21 49.58320 -51.67934 27518 ft 478 kts 69°
2026-04-30 11:22 49.59549 -51.63181 27829 ft 477 kts 69°
2026-04-30 11:22 49.60773 -51.58419 28155 ft 476 kts 69°
2026-04-30 11:22 49.61986 -51.53679 28440 ft 476 kts 69°
2026-04-30 11:22 49.63202 -51.48920 28722 ft 476 kts 69°
2026-04-30 11:23 49.64413 -51.44169 29041 ft 475 kts 69°
2026-04-30 11:23 49.65618 -51.39434 29390 ft 474 kts 70°
2026-04-30 11:23 49.68017 -51.29980 30023 ft 472 kts 69°
2026-04-30 11:24 49.69212 -51.25256 30341 ft 472 kts 69°
2026-04-30 11:24 49.70403 -51.20541 30645 ft 471 kts 70°
2026-04-30 11:24 49.71588 -51.15837 30950 ft 469 kts 70°
2026-04-30 11:25 49.73943 -51.06465 31539 ft 466 kts 70°
2026-04-30 11:25 49.75114 -51.01788 31815 ft 465 kts 70°
2026-04-30 11:25 49.77440 -50.92470 32344 ft 464 kts 70°
2026-04-30 11:26 49.79751 -50.83172 32939 ft 460 kts 70°
2026-04-30 11:26 49.80895 -50.78559 33268 ft 458 kts 71°
2026-04-30 11:26 49.82033 -50.73958 33494 ft 458 kts 71°
2026-04-30 11:27 49.83156 -50.69408 33679 ft 458 kts 71°
2026-04-30 11:27 49.84306 -50.64736 33915 ft 458 kts 71°
2026-04-30 11:27 49.85422 -50.60194 34167 ft 456 kts 71°
2026-04-30 11:27 49.86551 -50.55592 34404 ft 455 kts 71°
2026-04-30 11:28 49.88795 -50.46414 34738 ft 455 kts 71°
2026-04-30 11:28 49.89917 -50.41813 34913 ft 455 kts 71°
2026-04-30 11:28 49.91032 -50.37227 35082 ft 454 kts 71°
2026-04-30 11:29 49.92145 -50.32642 35251 ft 454 kts 71°
2026-04-30 11:29 49.93255 -50.28057 35382 ft 454 kts 71°
2026-04-30 11:29 49.95476 -50.18858 35407 ft 455 kts 71°
2026-04-30 11:30 49.98783 -50.05097 35420 ft 451 kts 71°